K9JM Weather Reports


time (UTC)temp
C
wind
direction
speed
KPH
gust
KPH
rain 1hr
cm
rain 24hr
cm
rain mn
cm
humidity
%
barometer
mb
20260905184517 22 135 1.6 9.7 0.00 0.00 0.00 44 1016.0
20260905183037 22 180 1.6 9.7 0.00 0.00 0.00 45 1015.8
20260905181517 21 113 1.6 6.4 0.00 0.00 0.00 48 1015.9
20260905180017 22 113 1.6 9.7 0.00 0.00 0.00 47 1016.0
20260905174517 22 113 3.2 8.0 0.00 0.00 0.00 49 1016.0
20260905173017 22 113 1.6 8.0 0.00 0.00 0.00 49 1016.0
20260905171517 21 113 1.6 8.0 0.00 0.00 0.00 51 1015.9
20260905170017 21 113 1.6 4.8 0.00 0.03 0.00 52 1015.7
20260905164557 20 113 1.6 4.8 0.00 0.03 0.00 53 1015.6
20260905163017 19 90 1.6 4.8 0.00 0.03 0.00 57 1015.6
20260905161517 18 90 1.6 6.4 0.00 0.03 0.00 59 1015.6
20260905160017 18 0.0 6.4 0.00 0.03 0.00 63 1015.6
20260905154517 17 68 1.6 6.4 0.00 0.03 0.00 61 1015.4
20260905153017 17 0.0 3.2 0.00 0.03 0.00 62 1015.7
20260905151517 17 0.0 3.2 0.00 0.05 0.00 65 1015.6
20260905150017 16 0.0 3.2 0.00 0.05 0.00 66 1015.5
20260905144517 15 0.0 3.2 0.00 0.05 0.00 67 1015.2
20260905143017 14 0.0 0.0 0.00 0.08 0.00 69 1015.2
20260905141516 13 0.0 0.0 0.00 0.08 0.00 71 1015.1
20260905140016 12 0.0 0.0 0.00 0.10 0.00 71 1014.8
20260905134536 12 0.0 0.0 0.00 0.10 0.00 71 1014.8
20260905133017 12 0.0 0.0 0.00 0.10 0.00 71 1014.7
20260905131516 12 0.0 0.0 0.00 0.10 0.00 71 1014.7
20260905130016 13 0.0 0.0 0.00 0.10 0.00 70 1014.7
20260905124517 13 0.0 0.0 0.00 0.13 0.00 70 1014.8
20260905123016 12 0.0 0.0 0.00 0.13 0.00 71 1014.7
20260905121517 13 0.0 0.0 0.00 0.13 0.00 71 1014.7
20260905120016 13 0.0 0.0 0.00 0.13 0.00 71 1014.9
20260905114556 13 0.0 1.6 0.00 0.13 0.00 71 1014.8
20260905113016 13 0.0 3.2 0.00 0.13 0.00 71 1014.8
20260905111516 13 0.0 1.6 0.00 0.15 0.00 71 1015.1
20260905110016 13 0.0 1.6 0.00 0.18 0.00 71 1015.1
20260905104517 13 0.0 1.6 0.00 0.20 0.00 73 1015.1
20260905103017 13 0.0 1.6 0.00 0.20 0.00 74 1015.1
20260905101517 12 0.0 3.2 0.00 0.25 0.00 76 1015.2
20260905100016 12 0.0 0.0 0.00 0.28 0.00 77 1015.1
20260905094516 12 0.0 1.6 0.00 0.36 0.00 79 1015.2
20260905093016 12 0.0 1.6 0.00 0.43 0.00 80 1015.2
20260905091517 12 0.0 0.0 0.00 0.51 0.00 80 1015.2
20260905090016 12 0.0 3.2 0.00 0.64 0.00 82 1015.2
20260905084517 12 0.0 4.8 0.00 0.71 0.00 82 1015.3
20260905083016 12 0.0 1.6 0.00 0.84 0.00 82 1015.2
20260905081516 12 0.0 1.6 0.00 0.86 0.00 81 1015.1
20260905080037 12 0.0 1.6 0.00 0.91 0.00 81 1014.9
20260905074516 12 0.0 1.6 0.00 0.97 0.00 82 1014.8
20260905073016 12 0.0 0.0 0.00 0.97 0.00 82 1014.6
20260905071517 12 0.0 1.6 0.00 0.99 0.00 82 1014.6
20260905070036 13 0.0 4.8 0.00 1.04 1.04 82 1014.5
20260905064515 13 0.0 3.2 0.00 1.09 1.04 82 1014.5
20260905063015 13 0.0 3.2 0.00 1.12 1.04 81 1014.5
20260905061535 13 0.0 1.6 0.00 1.17 1.04 80 1014.4
20260905060015 13 0.0 1.6 0.00 1.27 1.04 79 1014.6
20260905054515 13 0.0 0.0 0.00 1.37 1.04 76 1014.7
20260905053016 14 0.0 0.0 0.00 1.45 1.04 74 1014.7
20260905051516 14 0.0 0.0 0.00 1.60 1.04 72 1014.7
20260905050015 15 0.0 0.0 0.00 1.65 1.04 71 1014.9
20260905044515 15 0.0 0.0 0.00 1.68 1.04 70 1014.8
20260905043015 15 0.0 0.0 0.00 1.75 1.04 69 1014.5
20260905041535 15 0.0 0.0 0.00 1.80 1.04 67 1014.6
20260905040015 15 0.0 0.0 0.00 1.80 1.04 64 1014.4
20260905034515 15 0.0 0.0 0.00 1.83 1.04 63 1014.1
20260905033035 16 0.0 0.0 0.00 1.85 1.04 63 1014.1
20260905031515 16 0.0 0.0 0.00 1.98 1.04 63 1013.9
20260905030015 16 0.0 0.0 0.00 1.98 1.04 64 1014.0
20260905024517 17 0.0 0.0 0.00 1.98 1.04 63 1013.9
20260905023017 17 0.0 0.0 0.00 1.98 1.04 62 1014.1
20260905021517 17 0.0 0.0 0.00 1.98 1.04 60 1014.1
20260905020017 18 0.0 0.0 0.00 1.98 1.04 59 1014.2
20260905014517 18 0.0 1.6 0.00 1.98 1.04 59 1014.2
20260905013017 18 0.0 1.6 0.00 1.98 1.04 57 1014.2
20260905011517 18 0.0 3.2 0.00 1.98 1.04 56 1014.1
20260905010017 18 0.0 4.8 0.00 1.98 1.04 56 1013.9
20260905004517 18 0.0 6.4 0.00 1.98 1.04 54 1014.0
20260905003017 18 0.0 3.2 0.00 1.98 1.04 53 1014.1
20260905001517 18 135 1.6 6.4 0.00 1.98 1.04 54 1014.1
20260905000017 18 113 1.6 6.4 0.00 1.98 1.04 54 1014.2
20260904234537 19 113 1.6 6.4 0.00 1.98 1.04 53 1014.5
20260904233017 19 0.0 6.4 0.00 1.98 1.04 57 1014.7
20260904231517 19 0.0 3.2 0.00 1.98 1.04 56 1014.7
20260904230017 19 0.0 4.8 0.00 1.98 1.04 61 1014.7
20260904224517 19 113 1.6 9.7 0.00 1.98 1.04 59 1014.9
20260904223017 18 113 1.6 6.4 0.00 1.98 1.04 62 1015.0
20260904221537 18 113 3.2 8.0 0.00 1.98 1.04 62 1015.1
20260904220017 19 0.0 3.2 0.00 1.98 1.04 62 1015.2
20260904214517 19 113 1.6 11.3 0.00 1.98 1.04 62 1015.1
20260904213017 18 113 3.2 9.7 0.00 1.98 1.04 63 1014.8
20260904211517 19 135 3.2 9.7 0.00 1.98 1.04 63 1015.0
20260904210017 19 180 1.6 6.4 0.00 1.98 1.04 64 1014.8
20260904204517 18 135 3.2 8.0 0.00 1.98 1.04 66 1014.7
20260904203017 18 180 1.6 8.0 0.00 1.98 1.04 67 1014.7
20260904201517 18 113 3.2 8.0 0.00 1.98 1.04 70 1014.7
20260904200037 17 113 3.2 8.0 0.00 1.98 1.04 74 1014.8
20260904194517 17 90 1.6 8.0 0.00 1.98 1.04 79 1014.8
20260904193017 16 113 1.6 6.4 0.00 1.98 1.04 79 1014.8
20260904191537 16 113 1.6 6.4 0.00 1.98 1.04 82 1014.8
20260904190037 15 113 1.6 6.4 0.00 1.98 1.04 89 1014.7